• In Portugal
  • List of Countries
  • For 7 days
  • Water Temperature
  • Satellite Maps
  • Weather Map
  • Weather Widgets
  • user-avatar
    Login

    Hourly Weather Idzhewan

    Today, 25 September, Monday

    Time Temperature Precipitation Wind Pressure Humidity
    00:00 +19°C° 0.1 mm 1 mps 697 mmHg 81%
    01:00 +18°C° 0 mm 1 mps 697 mmHg 83%
    02:00 +18°C° 0 mm 1 mps 697 mmHg 84%
    03:00 +19°C° 0 mm 1 mps 696 mmHg 89%
    04:00 +19°C° 0.3 mm 1 mps 696 mmHg 90%
    05:00 +19°C° 0.3 mm 1 mps 696 mmHg 91%
    06:00 +18°C° 0.3 mm 1 mps 696 mmHg 92%
    07:00 +20°C° 0.4 mm 1 mps 696 mmHg 86%
    08:00 +21°C° 0.4 mm 1 mps 697 mmHg 81%
    09:00 +22°C° 0.4 mm 1 mps 697 mmHg 75%
    10:00 +23°C° 0.7 mm 2 mps 697 mmHg 69%
    11:00 +24°C° 0.7 mm 2 mps 697 mmHg 63%
    12:00 +25°C° 0.7 mm 2 mps 697 mmHg 56%
    13:00 +25°C° 0.5 mm 2 mps 696 mmHg 55%
    14:00 +25°C° 0.5 mm 3 mps 696 mmHg 54%
    15:00 +25°C° 0.5 mm 3 mps 696 mmHg 52%
    16:00 +24°C° 0.4 mm 2 mps 696 mmHg 58%
    17:00 +23°C° 0.4 mm 2 mps 696 mmHg 64%
    18:00 +21°C° 0.4 mm 1 mps 696 mmHg 70%
    19:00 +21°C° 0.1 mm 1 mps 696 mmHg 73%
    20:00 +20°C° 0.1 mm 1 mps 696 mmHg 75%
    21:00 +19°C° 0.1 mm 1 mps 696 mmHg 78%
    22:00 +19°C° 0 mm 1 mps 696 mmHg 80%
    23:00 +18°C° 0 mm 1 mps 696 mmHg 82%

    Tomorrow, 26 September, Tuesday

    Time Temperature Precipitation Wind Pressure Humidity
    00:00 +18°C° 0 mm 1 mps 696 mmHg 85%
    01:00 +18°C° 0 mm 1 mps 696 mmHg 85%
    02:00 +18°C° 0 mm 1 mps 696 mmHg 85%
    03:00 +18°C° 0 mm 1 mps 696 mmHg 85%
    04:00 +16°C° 0 mm 1 mps 696 mmHg 86%
    05:00 +16°C° 0 mm 1 mps 695 mmHg 86%
    06:00 +16°C° 0 mm 1 mps 695 mmHg 86%
    07:00 +18°C° 0 mm 1 mps 695 mmHg 81%
    08:00 +19°C° 0 mm 1 mps 695 mmHg 76%
    09:00 +20°C° 0 mm 1 mps 695 mmHg 70%
    10:00 +20°C° 0 mm 2 mps 695 mmHg 65%
    11:00 +21°C° 0 mm 2 mps 695 mmHg 60%
    12:00 +23°C° 0 mm 2 mps 695 mmHg 55%
    13:00 +24°C° 0 mm 2 mps 695 mmHg 54%
    14:00 +24°C° 0 mm 3 mps 694 mmHg 53%
    15:00 +25°C° 0 mm 3 mps 694 mmHg 51%
    16:00 +23°C° 0.1 mm 2 mps 694 mmHg 59%
    17:00 +21°C° 0.1 mm 2 mps 694 mmHg 66%
    18:00 +19°C° 0.1 mm 2 mps 694 mmHg 74%
    19:00 +19°C° 0.1 mm 2 mps 694 mmHg 76%
    20:00 +20°C° 0.1 mm 1 mps 694 mmHg 79%
    21:00 +19°C° 0.1 mm 1 mps 694 mmHg 81%
    22:00 +19°C° 0.1 mm 1 mps 694 mmHg 83%
    23:00 +18°C° 0.1 mm 2 mps 694 mmHg 84%

    Day after tomorrow, 27 September, Wednesday

    Time Temperature Precipitation Wind Pressure Humidity
    00:00 +17°C° 0.1 mm 2 mps 694 mmHg 85%
    01:00 +17°C° 0.1 mm 2 mps 694 mmHg 86%
    02:00 +17°C° 0.1 mm 2 mps 694 mmHg 88%
    03:00 +16°C° 0.1 mm 2 mps 694 mmHg 89%
    04:00 +16°C° 0.1 mm 2 mps 694 mmHg 89%
    05:00 +16°C° 0.1 mm 2 mps 693 mmHg 89%
    06:00 +16°C° 0.1 mm 1 mps 693 mmHg 89%
    07:00 +16°C° 0.2 mm 1 mps 693 mmHg 86%
    08:00 +17°C° 0.2 mm 2 mps 693 mmHg 83%
    09:00 +17°C° 0.2 mm 2 mps 694 mmHg 80%
    10:00 +18°C° 0.1 mm 2 mps 693 mmHg 77%
    11:00 +19°C° 0.1 mm 2 mps 693 mmHg 73%
    12:00 +19°C° 0.1 mm 3 mps 693 mmHg 70%
    13:00 +19°C° 0.4 mm 3 mps 693 mmHg 72%
    14:00 +19°C° 0.4 mm 3 mps 692 mmHg 74%
    15:00 +19°C° 0.4 mm 3 mps 692 mmHg 76%
    16:00 +18°C° 0.9 mm 2 mps 692 mmHg 80%
    17:00 +17°C° 0.9 mm 2 mps 693 mmHg 85%
    18:00 +16°C° 0.9 mm 2 mps 693 mmHg 89%
    19:00 +16°C° 0.9 mm 2 mps 693 mmHg 90%
    20:00 +16°C° 0.9 mm 1 mps 693 mmHg 91%
    21:00 +16°C° 0.9 mm 1 mps 694 mmHg 92%
    22:00 +15°C° 0.3 mm 1 mps 694 mmHg 92%
    23:00 +15°C° 0.3 mm 1 mps 694 mmHg 93%

    28 September, Thursday

    Time Temperature Precipitation Wind Pressure Humidity
    00:00 +15°C° 0.3 mm 1 mps 694 mmHg 93%
    01:00 +15°C° 0.1 mm 1 mps 694 mmHg 93%
    02:00 +15°C° 0.1 mm 1 mps 693 mmHg 93%
    03:00 +14°C° 0.1 mm 1 mps 693 mmHg 94%
    04:00 +14°C° 0.2 mm 1 mps 693 mmHg 94%
    05:00 +14°C° 0.2 mm 1 mps 694 mmHg 93%
    06:00 +14°C° 0.2 mm 1 mps 694 mmHg 93%
    07:00 +15°C° 0.2 mm 2 mps 694 mmHg 91%
    08:00 +15°C° 0.2 mm 2 mps 694 mmHg 89%
    09:00 +15°C° 0.2 mm 2 mps 695 mmHg 86%
    10:00 +16°C° 0.3 mm 2 mps 694 mmHg 86%
    11:00 +16°C° 0.3 mm 3 mps 694 mmHg 85%
    12:00 +16°C° 0.3 mm 3 mps 694 mmHg 84%
    13:00 +14°C° 0.3 mm 3 mps 694 mmHg 85%
    14:00 +14°C° 0.3 mm 3 mps 694 mmHg 86%
    15:00 +14°C° 0.3 mm 3 mps 694 mmHg 87%
    16:00 +13°C° 0.3 mm 3 mps 694 mmHg 88%
    17:00 +13°C° 0.3 mm 3 mps 695 mmHg 89%
    18:00 +13°C° 0.3 mm 3 mps 695 mmHg 91%
    19:00 +13°C° 0.2 mm 2 mps 696 mmHg 91%
    20:00 +13°C° 0.2 mm 2 mps 696 mmHg 91%
    21:00 +13°C° 0.2 mm 2 mps 696 mmHg 92%
    22:00 +13°C° 0.2 mm 2 mps 696 mmHg 92%
    23:00 +13°C° 0.2 mm 2 mps 696 mmHg 92%

    29 September, Friday

    Time Temperature Precipitation Wind Pressure Humidity
    00:00 +13°C° 0.2 mm 2 mps 696 mmHg 93%
    01:00 +13°C° 0.1 mm 2 mps 696 mmHg 93%
    02:00 +13°C° 0.1 mm 2 mps 696 mmHg 93%
    03:00 +13°C° 0.1 mm 2 mps 696 mmHg 93%
    04:00 +12°C° 0.1 mm 2 mps 696 mmHg 93%
    05:00 +12°C° 0.1 mm 2 mps 696 mmHg 94%
    06:00 +12°C° 0.1 mm 2 mps 696 mmHg 94%
    07:00 +13°C° 0.1 mm 2 mps 696 mmHg 92%
    08:00 +13°C° 0.1 mm 2 mps 696 mmHg 89%
    09:00 +14°C° 0.1 mm 2 mps 696 mmHg 86%
    10:00 +14°C° 0.1 mm 2 mps 696 mmHg 85%
    11:00 +15°C° 0.1 mm 2 mps 695 mmHg 83%
    12:00 +14°C° 0.1 mm 3 mps 695 mmHg 81%
    13:00 +14°C° 0 mm 3 mps 695 mmHg 82%
    14:00 +15°C° 0 mm 2 mps 694 mmHg 83%
    15:00 +15°C° 0 mm 2 mps 694 mmHg 84%
    16:00 +14°C° 0 mm 2 mps 694 mmHg 86%
    17:00 +14°C° 0 mm 2 mps 694 mmHg 89%
    18:00 +14°C° 0 mm 2 mps 694 mmHg 91%
    19:00 +13°C° 0.1 mm 2 mps 694 mmHg 91%
    20:00 +13°C° 0.1 mm 2 mps 694 mmHg 92%
    21:00 +13°C° 0.1 mm 2 mps 694 mmHg 92%
    22:00 +13°C° 0 mm 2 mps 694 mmHg 93%
    23:00 +13°C° 0 mm 2 mps 694 mmHg 93%

    30 September, Saturday

    Time Temperature Precipitation Wind Pressure Humidity
    00:00 +13°C° 0 mm 2 mps 693 mmHg 94%
    01:00 +13°C° 0.1 mm 2 mps 693 mmHg 93%
    02:00 +13°C° 0.1 mm 1 mps 693 mmHg 93%
    03:00 +13°C° 0.1 mm 1 mps 693 mmHg 92%
    04:00 +13°C° 0.8 mm 1 mps 693 mmHg 92%
    05:00 +13°C° 0.8 mm 1 mps 693 mmHg 92%
    06:00 +13°C° 0.8 mm 1 mps 693 mmHg 92%
    07:00 +14°C° 0.5 mm 1 mps 692 mmHg 89%
    08:00 +14°C° 0.5 mm 1 mps 692 mmHg 86%
    09:00 +15°C° 0.5 mm 1 mps 692 mmHg 83%
    10:00 +15°C° 0.4 mm 2 mps 692 mmHg 82%
    11:00 +15°C° 0.4 mm 2 mps 692 mmHg 80%
    12:00 +16°C° 0.4 mm 2 mps 692 mmHg 78%
    13:00 +16°C° 0.4 mm 2 mps 691 mmHg 78%
    14:00 +16°C° 0.4 mm 2 mps 691 mmHg 77%
    15:00 +16°C° 0.4 mm 2 mps 690 mmHg 76%
    16:00 +16°C° 0 mm 1 mps 691 mmHg 79%
    17:00 +15°C° 0 mm 1 mps 691 mmHg 82%
    18:00 +14°C° 0 mm 1 mps 691 mmHg 85%
    19:00 +14°C° 0 mm 1 mps 691 mmHg 86%
    20:00 +14°C° 0 mm 1 mps 691 mmHg 87%
    21:00 +13°C° 0 mm 1 mps 691 mmHg 88%
    22:00 +13°C° 0 mm 1 mps 691 mmHg 87%
    23:00 +13°C° 0 mm 1 mps 691 mmHg 85%
    Show more